This demonstration page uses our WeatherBlox Daily Observations layout. Learn more.

Left ArrowRight Arrow

30.21309, -93.2044

Hourly Observations for July 11, 2022

Temp ( °F °C ) Dew Point ( °F °C ) Humidity (%) Winds ( mph kmh ) Pressure ( in mb ) Visibility ( mi km ) Precip ( " mm )
12:15 am 00:15 Clear 76 24.4 73 22.5 89 89 NNW 5 7 29.89 1012 10 16 0.00 0.00
12:35 am 00:35 Clear 76 24.5 73 22.5 89 89 Calm 29.89 1012 10 16 0.00 0.00
12:55 am 00:55 Clear 76 24.3 72 22.4 89 89 Calm 29.90 1013 10 16 0.00 0.00
1:15 am 01:15 Clear 76 24.3 72 22.4 89 89 Calm 29.90 1013 10 16 0.00 0.00
1:35 am 01:35 Clear 75 23.8 73 22.6 93 93 E 5 7 29.91 1013 10 16 0.00 0.00
1:55 am 01:55 Clear 75 24 73 22.7 92 92 ENE 3 6 29.90 1013 10 16 0.00 0.00
2:15 am 02:15 Clear 76 24.2 73 22.6 91 91 Calm 29.90 1013 10 16 0.00 0.00
2:35 am 02:35 Clear 76 24.2 73 22.7 91 91 NE 3 6 29.90 1013 10 16 0.00 0.00
2:55 am 02:55 Mostly Cloudy 76 24.4 73 22.7 90 90 NNE 3 6 29.89 1012 10 16 0.00 0.00
3:15 am 03:15 Cloudy 76 24.6 73 22.7 89 89 Calm 29.89 1012 10 16 0.00 0.00
3:35 am 03:35 Cloudy 77 24.8 73 22.7 88 88 Calm 29.89 1012 10 16 0.00 0.00
3:55 am 03:55 Mostly Cloudy 76 24.6 73 22.7 89 89 Calm 29.88 1012 10 16 0.00 0.00
4:15 am 04:15 Partly Cloudy 77 24.9 73 22.8 88 88 Calm 29.88 1012 10 16 0.00 0.00
4:35 am 04:35 Clear 77 25 73 22.8 88 88 Calm 29.88 1012 10 16 0.00 0.00
4:55 am 04:55 Clear 75 24.1 73 22.8 92 92 Calm 29.88 1012 10 16 0.00 0.00
5:15 am 05:15 Partly Cloudy 76 24.5 73 22.8 90 90 Calm 29.88 1012 10 16 0.00 0.00
5:35 am 05:35 Partly Cloudy 76 24.4 73 22.9 91 91 Calm 29.87 1011 10 16 0.00 0.00
6:00 am 06:00 Partly Cloudy 75 24 73 23 94 94 Calm 29.87 1011 10 16 0.00 0.00
6:55 am 06:55 Mostly Cloudy 75 24 73 23 94 94 Calm 29.88 1012 10 16 0.00 0.00
7:55 am 07:55 Mostly Cloudy 79 26 73 23 84 84 Calm 29.89 1012 7 11 0.00 0.00
9:50 am 09:50 Partly Cloudy 84 29 77 25 79 79 Calm 29.89 1012 10 16 0.00 0.00
10:45 am 10:45 Partly Cloudy 90 32 77 25 67 67 WSW 6 9 29.89 1012 10 16 0.00 0.00
11:50 am 11:50 Partly Cloudy 91 33 75 24 59 59 WSW 6 9 29.87 1011 10 16 0.00 0.00
12:45 pm 12:45 Partly Cloudy 91 33 75 24 59 59 VRB 5 7 29.87 1011 10 16 0.00 0.00
1:45 pm 13:45 Mostly Cloudy 93 34 73 23 53 53 VRB 5 7 29.86 1011 10 16 0.00 0.00
2:49 pm 14:49 Partly Cloudy 93 34 73 23 53 53 W 5 7 29.84 1010 10 16 0.00 0.00
3:55 pm 15:55 Partly Cloudy 93 34 79 26 63 63 SW 13 20 29.82 1010 10 16 0.00 0.00
4:51 pm 16:51 Partly Cloudy 93 34 79 26 63 63 SSW 10 17 29.81 1009 10 16 0.00 0.00
5:49 pm 17:49 Hazy 91 33 79 26 67 67 SSW 16 26 29.79 1009 7 11 0.00 0.00
6:51 pm 18:51 Mostly Sunny 90 32 79 26 71 71 SSW 10 17 29.80 1009 10 16 0.00 0.00
7:49 pm 19:49 Mostly Sunny 88 31 77 25 70 70 SW 10 17 29.80 1009 10 16 0.00 0.00
8:58 pm 20:58 Mostly Clear 86 30 75 24 70 70 SW 7 11 29.84 1010 10 16 0.00 0.00
9:55 pm 21:55 Partly Cloudy with Thunderstorms 84 29 77 25 79 79 SSW 6 9 29.85 1011 10 16 0.00 0.00
10:15 pm 22:15 Clear with Nearby Thunderstorms 83 28.5 78 25.3 83 83 Calm 29.88 1012 10 16 0.00 0.00
10:35 pm 22:35 Clear 83 28.3 77 25.2 83 83 Calm 29.87 1011 10 16 0.00 0.00
10:55 pm 22:55 Partly Cloudy 82 27.9 78 25.3 86 86 E 9 15 29.88 1012 10 16 0.00 0.00
11:15 pm 23:15 Mostly Cloudy 82 27.9 78 25.5 87 87 E 5 7 29.88 1012 10 16 0.00 0.00
11:35 pm 23:35 Cloudy 82 27.9 78 25.5 87 87 Calm 29.87 1011 10 16 0.00 0.00
11:55 pm 23:55 Cloudy 83 28.3 78 25.4 84 84 Calm 29.88 1012 10 16 0.00 0.00

Powered by AerisWeather